When you browse on this site, cookies collect data to enhance your experience and personalize the content and advertising you see.
Visit our Privacy Policy to learn more. By continuing to use the site, you agree to this use of cookies and data.
  • In Hungary
  • List of Countries
  • For 7 days
  • Water Temperature
  • Weather Map
  • News
  • Weather Widgets
  • user-avatar
    Login

    Hourly Weather Elsukovo

    Today, 14 October, Monday

    Time Temperature Precipitation Wind Pressure Humidity
    00:00 +7°C° 0.1 mm 6 mps 738 mmHg 82%
    01:00 +5°C° 0 mm 6 mps 739 mmHg 82%
    02:00 +5°C° 0 mm 7 mps 739 mmHg 82%
    03:00 +5°C° 0 mm 6 mps 739 mmHg 83%
    04:00 +5°C° 0 mm 7 mps 740 mmHg 84%
    05:00 +4°C° 0 mm 7 mps 740 mmHg 84%
    06:00 +4°C° 0 mm 7 mps 740 mmHg 85%
    07:00 +4°C° 0 mm 7 mps 741 mmHg 84%
    08:00 +5°C° 0 mm 7 mps 741 mmHg 82%
    09:00 +5°C° 0 mm 8 mps 742 mmHg 81%
    10:00 +6°C° 0 mm 7 mps 742 mmHg 80%
    11:00 +6°C° 0 mm 7 mps 743 mmHg 79%
    12:00 +6°C° 0 mm 7 mps 743 mmHg 78%
    13:00 +7°C° 0 mm 6 mps 743 mmHg 76%
    14:00 +8°C° 0 mm 6 mps 744 mmHg 75%
    15:00 +8°C° 0 mm 5 mps 744 mmHg 74%
    16:00 +7°C° 0.1 mm 5 mps 744 mmHg 77%
    17:00 +7°C° 0.1 mm 4 mps 745 mmHg 80%
    18:00 +6°C° 0.1 mm 4 mps 745 mmHg 83%
    19:00 +5°C° 0 mm 3 mps 745 mmHg 85%
    20:00 +4°C° 0 mm 3 mps 745 mmHg 87%
    21:00 +3°C° 0 mm 3 mps 745 mmHg 89%
    22:00 +4°C° 0 mm 3 mps 745 mmHg 89%
    23:00 +5°C° 0 mm 2 mps 744 mmHg 89%

    Tomorrow, 15 October, Tuesday

    Time Temperature Precipitation Wind Pressure Humidity
    00:00 +5°C° 0 mm 2 mps 744 mmHg 90%
    01:00 +5°C° 0.2 mm 2 mps 744 mmHg 92%
    02:00 +5°C° 0.2 mm 2 mps 743 mmHg 94%
    03:00 +5°C° 0.2 mm 2 mps 742 mmHg 96%
    04:00 +5°C° 0.6 mm 2 mps 742 mmHg 95%
    05:00 +5°C° 0.6 mm 2 mps 741 mmHg 95%
    06:00 +5°C° 0.6 mm 2 mps 741 mmHg 94%
    07:00 +5°C° 0.2 mm 2 mps 740 mmHg 94%
    08:00 +5°C° 0.2 mm 2 mps 740 mmHg 93%
    09:00 +6°C° 0.2 mm 2 mps 740 mmHg 93%
    10:00 +6°C° 0.2 mm 2 mps 741 mmHg 93%
    11:00 +6°C° 0.2 mm 2 mps 741 mmHg 92%
    12:00 +6°C° 0.2 mm 2 mps 741 mmHg 92%
    13:00 +5°C° 0 mm 3 mps 742 mmHg 90%
    14:00 +5°C° 0 mm 3 mps 743 mmHg 88%
    15:00 +5°C° 0 mm 4 mps 743 mmHg 86%
    16:00 +4°C° 0 mm 4 mps 744 mmHg 85%
    17:00 +4°C° 0 mm 4 mps 745 mmHg 83%
    18:00 +3°C° 0 mm 4 mps 746 mmHg 82%
    19:00 +3°C° 0 mm 4 mps 746 mmHg 78%
    20:00 +3°C° 0 mm 4 mps 747 mmHg 75%
    21:00 +1°C° 0 mm 4 mps 748 mmHg 72%
    22:00 +1°C° 0 mm 5 mps 748 mmHg 77%
    23:00 +1°C° 0 mm 5 mps 749 mmHg 83%

    Day after tomorrow, 16 October, Wednesday

    Time Temperature Precipitation Wind Pressure Humidity
    00:00 +1°C° 0 mm 5 mps 749 mmHg 89%
    01:00 +1°C° 0 mm 5 mps 750 mmHg 88%
    02:00 +1°C° 0 mm 5 mps 751 mmHg 87%
    03:00 +1°C° 0 mm 5 mps 752 mmHg 87%
    04:00 0°C° 0 mm 5 mps 752 mmHg 86%
    05:00 0°C° 0 mm 5 mps 752 mmHg 85%
    06:00 0°C° 0 mm 5 mps 753 mmHg 85%
    07:00 +1°C° 0 mm 5 mps 753 mmHg 82%
    08:00 +1°C° 0 mm 5 mps 754 mmHg 78%
    09:00 +1°C° 0 mm 6 mps 754 mmHg 75%
    10:00 +2°C° 0 mm 5 mps 755 mmHg 73%
    11:00 +2°C° 0 mm 5 mps 755 mmHg 71%
    12:00 +3°C° 0 mm 5 mps 755 mmHg 69%
    13:00 +4°C° 0 mm 4 mps 755 mmHg 69%
    14:00 +4°C° 0 mm 4 mps 756 mmHg 69%
    15:00 +3°C° 0 mm 4 mps 756 mmHg 70%
    16:00 +2°C° 0 mm 3 mps 756 mmHg 75%
    17:00 +2°C° 0 mm 3 mps 756 mmHg 80%
    18:00 +2°C° 0 mm 2 mps 756 mmHg 85%
    19:00 +1°C° 0 mm 2 mps 756 mmHg 85%
    20:00 +1°C° 0 mm 2 mps 756 mmHg 86%
    21:00 +2°C° 0 mm 1 mps 756 mmHg 87%
    22:00 +2°C° 0 mm 1 mps 756 mmHg 87%
    23:00 +1°C° 0 mm 2 mps 756 mmHg 87%

    17 October, Thursday

    Time Temperature Precipitation Wind Pressure Humidity
    00:00 +1°C° 0 mm 2 mps 756 mmHg 86%
    01:00 +1°C° 0 mm 2 mps 756 mmHg 87%
    02:00 +1°C° 0 mm 2 mps 756 mmHg 88%
    03:00 0°C° 0 mm 3 mps 756 mmHg 89%
    04:00 0°C° 0.4 mm 3 mps 755 mmHg 92%
    05:00 -1°C° 0.4 mm 4 mps 755 mmHg 94%
    06:00 -1°C° 0.4 mm 4 mps 754 mmHg 97%
    07:00 0°C° 0.4 mm 5 mps 753 mmHg 92%
    08:00 0°C° 0.4 mm 5 mps 752 mmHg 88%
    09:00 +1°C° 0.4 mm 6 mps 751 mmHg 84%
    10:00 +2°C° 0 mm 6 mps 751 mmHg 80%
    11:00 +3°C° 0 mm 6 mps 750 mmHg 77%
    12:00 +3°C° 0 mm 7 mps 749 mmHg 73%
    13:00 +4°C° 0 mm 7 mps 748 mmHg 73%
    14:00 +4°C° 0 mm 7 mps 747 mmHg 73%
    15:00 +5°C° 0 mm 7 mps 747 mmHg 73%
    16:00 +5°C° 0.7 mm 7 mps 746 mmHg 79%
    17:00 +5°C° 0.7 mm 7 mps 745 mmHg 84%
    18:00 +5°C° 0.7 mm 6 mps 744 mmHg 90%
    19:00 +5°C° 0.4 mm 6 mps 744 mmHg 91%
    20:00 +7°C° 0.4 mm 6 mps 744 mmHg 93%
    21:00 +7°C° 0.4 mm 6 mps 744 mmHg 94%
    22:00 +7°C° 0.1 mm 6 mps 744 mmHg 92%
    23:00 +5°C° 0.1 mm 7 mps 744 mmHg 91%

    18 October, Friday

    Time Temperature Precipitation Wind Pressure Humidity
    00:00 +5°C° 0.1 mm 7 mps 744 mmHg 89%
    01:00 +3°C° 0 mm 7 mps 745 mmHg 84%
    02:00 +2°C° 0 mm 7 mps 746 mmHg 79%
    03:00 0°C° 0 mm 7 mps 746 mmHg 74%
    04:00 -1°C° 0 mm 6 mps 747 mmHg 78%
    05:00 -2°C° 0 mm 6 mps 748 mmHg 81%
    06:00 -1°C° 0 mm 5 mps 749 mmHg 84%
    07:00 -1°C° 0 mm 5 mps 749 mmHg 80%
    08:00 -1°C° 0 mm 6 mps 750 mmHg 77%
    09:00 -1°C° 0 mm 6 mps 751 mmHg 73%
    10:00 -1°C° 0 mm 6 mps 751 mmHg 73%
    11:00 -1°C° 0 mm 6 mps 752 mmHg 72%
    12:00 0°C° 0 mm 5 mps 753 mmHg 72%
    13:00 0°C° 0 mm 5 mps 753 mmHg 72%
    14:00 0°C° 0 mm 5 mps 754 mmHg 72%
    15:00 -1°C° 0 mm 5 mps 754 mmHg 72%
    16:00 -1°C° 0 mm 5 mps 755 mmHg 73%
    17:00 -1°C° 0 mm 5 mps 755 mmHg 74%
    18:00 -2°C° 0 mm 5 mps 756 mmHg 75%
    19:00 -2°C° 0 mm 4 mps 756 mmHg 75%
    20:00 -2°C° 0 mm 4 mps 757 mmHg 75%
    21:00 -2°C° 0 mm 4 mps 757 mmHg 75%
    22:00 -1°C° 0 mm 3 mps 758 mmHg 75%
    23:00 -1°C° 0 mm 3 mps 758 mmHg 76%

    19 October, Saturday

    Time Temperature Precipitation Wind Pressure Humidity
    00:00 -2°C° 0 mm 2 mps 758 mmHg 76%
    01:00 -2°C° 0 mm 2 mps 759 mmHg 78%
    02:00 -3°C° 0 mm 2 mps 759 mmHg 81%
    03:00 -3°C° 0 mm 2 mps 759 mmHg 84%
    04:00 -1°C° 0 mm 1 mps 760 mmHg 84%
    05:00 -2°C° 0 mm 1 mps 760 mmHg 84%
    06:00 -2°C° 0 mm 1 mps 760 mmHg 85%
    07:00 -1°C° 0 mm 1 mps 760 mmHg 80%
    08:00 0°C° 0 mm 1 mps 761 mmHg 75%
    09:00 +1°C° 0 mm 1 mps 761 mmHg 70%
    10:00 +2°C° 0 mm 1 mps 761 mmHg 66%
    11:00 +2°C° 0 mm 1 mps 761 mmHg 63%
    12:00 +3°C° 0 mm 1 mps 761 mmHg 59%
    13:00 +3°C° 0 mm 1 mps 761 mmHg 60%
    14:00 +2°C° 0 mm 2 mps 761 mmHg 61%
    15:00 +2°C° 0 mm 2 mps 760 mmHg 62%
    16:00 +1°C° 0 mm 2 mps 760 mmHg 68%
    17:00 -1°C° 0 mm 2 mps 760 mmHg 73%
    18:00 -2°C° 0 mm 2 mps 760 mmHg 78%
    19:00 -2°C° 0 mm 2 mps 760 mmHg 79%
    20:00 -2°C° 0 mm 2 mps 760 mmHg 79%
    21:00 -2°C° 0 mm 2 mps 760 mmHg 80%
    22:00 -2°C° 0 mm 2 mps 760 mmHg 80%
    23:00 -2°C° 0 mm 2 mps 760 mmHg 80%
    Show more